FW3222 Weather Reports


time (UTC)temp
F
wind
direction
speed
knots
gust
knots
rain 1hr
in
rain 24hr
in
rain mn
in
humidity
%
barometer
mb
20260504100551 36 268 0.0 0.0 0.00 0.00 0.00 65 1015.2
20260504100248 36 268 0.0 0.0 0.00 0.00 0.00 65 1015.3
20260504081911 38 251 0.0 0.9 0.00 0.00 0.00 62 1015.5
20260504081604 38 251 0.0 0.9 0.00 0.00 0.00 62 1015.7
20260504081258 38 248 0.0 0.0 0.00 0.00 0.00 62 1015.6
20260504080948 38 248 0.0 0.0 0.00 0.00 0.00 62 1015.7
20260504080652 38 248 0.0 0.0 0.00 0.00 0.00 62 1015.6
20260504060159 40 264 0.0 0.0 0.00 0.00 0.00 59 1015.7
20260504050105 41 243 0.0 0.0 0.00 0.00 0.00 56 1015.6
20260504045800 41 243 0.0 0.0 0.00 0.00 0.00 56 1015.7
20260504045446 41 243 0.0 0.0 0.00 0.00 0.00 56 1015.7
20260504045137 42 243 0.0 0.0 0.00 0.00 0.00 56 1015.7
20260504044840 42 243 0.0 0.0 0.00 0.00 0.00 55 1015.8
20260504044527 42 243 0.0 0.0 0.00 0.00 0.00 55 1015.7
20260504044221 42 243 0.0 0.0 0.00 0.00 0.00 55 1015.9
20260504043907 42 243 0.0 0.0 0.00 0.00 0.00 55 1015.8
20260504043605 42 243 0.0 0.0 0.00 0.00 0.00 55 1015.9
20260504043258 42 240 0.0 0.0 0.00 0.00 0.00 55 1015.8
20260504042959 42 240 0.0 0.0 0.00 0.00 0.00 55 1015.8
20260504042232 42 240 0.0 0.0 0.00 0.00 0.00 54 1015.8
20260504041929 42 240 0.0 0.0 0.00 0.00 0.00 54 1015.7
20260504041616 42 205 0.0 0.0 0.00 0.00 0.00 54 1015.8
20260504041303 43 163 0.0 0.0 0.00 0.00 0.00 54 1015.7
20260504040553 43 163 0.0 0.0 0.00 0.00 0.00 54 1015.7
20260504040241 43 163 0.0 0.0 0.00 0.00 0.00 54 1015.8
20260504035943 43 163 0.0 0.0 0.00 0.00 0.00 54 1015.8
20260504035639 43 164 0.0 0.0 0.00 0.00 0.00 53 1015.8
20260504035339 43 164 0.0 0.0 0.00 0.00 0.00 53 1015.9
20260504035039 43 160 0.0 0.0 0.00 0.00 0.00 53 1015.8
20260504034735 43 160 0.0 0.0 0.00 0.00 0.00 53 1015.7
20260504034423 43 160 0.0 0.0 0.00 0.00 0.00 52 1015.8
20260504034126 44 150 0.0 0.0 0.00 0.00 0.00 51 1015.7
20260504033813 44 147 0.0 0.0 0.00 0.00 0.00 52 1015.6
20260504033512 44 147 0.0 0.0 0.00 0.00 0.00 52 1015.7
20260504033207 44 147 0.0 0.0 0.00 0.00 0.00 51 1015.5
20260504032449 44 147 0.0 0.0 0.00 0.00 0.00 51 1015.5
20260504032142 44 153 0.0 0.0 0.00 0.00 0.00 51 1015.4
20260504031832 44 261 0.0 0.0 0.00 0.00 0.00 50 1015.4
20260504031114 45 261 0.0 0.0 0.00 0.00 0.00 51 1015.3
20260504030808 45 261 0.0 0.0 0.00 0.00 0.00 51 1015.3
20260504030503 45 261 0.0 0.0 0.00 0.00 0.00 51 1015.3
20260504030154 45 261 0.0 0.0 0.00 0.00 0.00 51 1015.1
20260504025418 45 261 0.0 0.0 0.00 0.00 0.00 50 1015.1
20260504024237 46 261 0.0 0.0 0.00 0.00 0.00 49 1015.2
20260504023938 46 261 0.0 0.0 0.00 0.00 0.00 49 1015.2
20260504023642 46 260 0.0 0.0 0.00 0.00 0.00 48 1015.2
20260504022901 46 260 0.0 0.0 0.00 0.00 0.00 47 1015.2
20260504022151 46 260 0.0 0.0 0.00 0.00 0.00 47 1015.2
20260504021848 46 260 0.0 0.0 0.00 0.00 0.00 46 1015.1
20260504021545 47 260 0.0 0.0 0.00 0.00 0.00 46 1015.1
20260504021240 47 260 0.0 0.0 0.00 0.00 0.00 45 1015.1
20260504020937 47 260 0.0 0.0 0.00 0.00 0.00 44 1015.1
20260504020628 47 260 0.0 0.0 0.00 0.00 0.00 44 1015.0
20260504020326 47 260 0.0 0.0 0.00 0.00 0.00 44 1015.2
20260504020025 47 260 0.0 0.0 0.00 0.00 0.00 43 1015.1
20260504015721 48 260 0.0 0.0 0.00 0.00 0.00 45 1015.1
20260504015414 48 260 0.0 0.0 0.00 0.00 0.00 44 1015.1
20260504015102 48 260 0.0 0.0 0.00 0.00 0.00 43 1015.2
20260504014342 49 260 0.0 0.0 0.00 0.00 0.00 42 1015.1
20260504014031 49 260 0.0 0.0 0.00 0.00 0.00 41 1015.0
20260504013730 49 260 0.0 0.0 0.00 0.00 0.00 40 1015.0
20260504013428 49 260 0.0 0.0 0.00 0.00 0.00 40 1015.1
20260504013115 49 260 0.0 0.0 0.00 0.00 0.00 41 1015.0
20260504012806 50 260 0.0 0.0 0.00 0.00 0.00 40 1015.2
20260504012500 50 260 0.0 0.0 0.00 0.00 0.00 38 1015.1
20260504012148 50 260 0.0 0.0 0.00 0.00 0.00 38 1015.0
20260504011846 50 260 0.0 0.0 0.00 0.00 0.00 38 1015.0
20260504011117 51 260 0.0 0.0 0.00 0.00 0.00 38 1015.0
20260504010352 51 260 0.0 0.0 0.00 0.00 0.00 37 1014.9
20260504010048 52 260 0.0 0.0 0.00 0.00 0.00 37 1014.9
20260504005750 52 260 0.0 0.0 0.00 0.00 0.00 36 1014.9
20260504005029 53 261 0.0 0.0 0.00 0.00 0.00 36 1014.8
20260504004729 53 262 0.0 0.0 0.00 0.00 0.00 35 1014.7
20260504004427 53 262 0.0 0.0 0.00 0.00 0.00 36 1014.7
20260504004117 53 262 0.0 0.0 0.00 0.00 0.00 34 1014.7
20260504003804 54 262 0.0 0.0 0.00 0.00 0.00 33 1014.7
20260504003505 54 262 0.0 0.0 0.00 0.00 0.00 32 1014.9
20260504002732 55 292 0.0 0.0 0.00 0.00 0.00 31 1014.8
20260504002420 55 292 0.0 0.0 0.00 0.00 0.00 31 1014.7
20260504001702 55 317 0.0 2.6 0.00 0.00 0.00 29 1014.5
20260504000938 56 326 0.0 0.9 0.00 0.00 0.00 28 1014.5
20260504000222 57 263 0.0 2.6 0.00 0.00 0.00 28 1014.5
20260503235919 57 292 0.0 1.7 0.00 0.00 0.00 27 1014.5
20260503235158 57 271 0.0 7.0 0.00 0.00 0.00 27 1014.4
20260503234850 57 305 0.0 7.0 0.00 0.00 0.00 26 1014.4
20260503234125 58 273 1.7 7.0 0.00 0.00 0.00 25 1014.3
20260503233823 58 223 1.7 7.0 0.00 0.00 0.00 26 1014.4
20260503233056 58 275 1.7 6.1 0.00 0.00 0.00 26 1014.1
20260503232745 58 281 0.9 6.1 0.00 0.00 0.00 25 1014.1
20260503232025 59 269 1.7 6.1 0.00 0.00 0.00 24 1014.2
20260503231726 59 319 1.7 6.1 0.00 0.00 0.00 25 1014.1
20260503230957 59 321 0.9 8.7 0.00 0.00 0.00 25 1014.1
20260503230655 59 324 0.9 8.7 0.00 0.00 0.00 24 1014.1
20260503230342 59 281 0.9 8.7 0.00 0.00 0.00 25 1014.1
20260503230041 59 270 1.7 8.7 0.00 0.00 0.00 26 1014.1
20260503225736 60 348 1.7 8.7 0.00 0.00 0.00 23 1014.1
20260503225428 60 336 2.6 8.7 0.00 0.00 0.00 23 1014.1
20260503225116 60 291 2.6 8.7 0.00 0.00 0.00 24 1014.1
20260503224814 60 279 2.6 8.7 0.00 0.00 0.00 22 1014.1
20260503224047 60 286 2.6 9.6 0.00 0.00 0.00 22 1014.1
20260503223311 60 277 2.6 13.0 0.00 0.00 0.00 22 1014.1
20260503223001 60 20 3.5 13.0 0.00 0.00 0.00 24 1014.1
20260503222242 60 284 4.3 13.0 0.00 0.00 0.00 21 1014.2
20260503221930 60 290 4.3 13.0 0.00 0.00 0.00 21 1014.1
20260503221618 60 292 3.5 13.0 0.00 0.00 0.00 21 1014.1
20260503220006 60 240 1.7 8.7 0.00 0.00 0.00 23 1014.1
20260503215652 60 305 1.7 8.7 0.00 0.00 0.00 22 1014.1
20260503215348 60 298 1.7 9.6 0.00 0.00 0.00 23 1014.1
20260503215037 60 133 2.6 9.6 0.00 0.00 0.00 24 1014.2
20260503214319 61 278 4.3 13.9 0.00 0.00 0.00 22 1014.2
20260503213544 61 286 4.3 13.9 0.00 0.00 0.00 23 1014.0
20260503212829 61 295 5.2 13.9 0.00 0.00 0.00 21 1014.1
20260503212518 61 269 4.3 13.9 0.00 0.00 0.00 21 1014.2
20260503212216 61 288 3.5 11.3 0.00 0.00 0.00 23 1014.1
20260503211919 61 275 1.7 8.7 0.00 0.00 0.00 21 1014.0
20260503211617 61 305 1.7 7.8 0.00 0.00 0.00 24 1014.0
20260503211321 61 298 2.6 13.0 0.00 0.00 0.00 23 1014.0
20260503211025 61 278 3.5 13.0 0.00 0.00 0.00 24 1014.0
20260503210717 61 305 3.5 13.0 0.00 0.00 0.00 22 1014.1
20260503210411 61 292 3.5 13.0 0.00 0.00 0.00 21 1014.2
20260503210101 61 335 3.5 13.0 0.00 0.00 0.00 21 1014.1
20260503205751 62 290 4.3 13.0 0.00 0.00 0.00 20 1014.1
20260503205443 62 238 4.3 12.2 0.00 0.00 0.00 21 1014.1
20260503205130 62 246 4.3 12.2 0.00 0.00 0.00 21 1014.2
20260503204816 62 247 3.5 12.2 0.00 0.00 0.00 21 1014.1
20260503204514 62 41 4.3 12.2 0.00 0.00 0.00 22 1014.1
20260503204201 62 263 3.5 11.3 0.00 0.00 0.00 23 1014.2
20260503203901 62 260 3.5 9.6 0.00 0.00 0.00 23 1014.2
20260503203558 62 346 3.5 13.0 0.00 0.00 0.00 22 1014.2
20260503203255 62 287 2.6 13.0 0.00 0.00 0.00 21 1014.2
20260503202538 62 310 4.3 13.0 0.00 0.00 0.00 21 1014.3
20260503202234 62 283 5.2 13.0 0.00 0.00 0.00 21 1014.3
20260503201937 63 0 4.3 13.0 0.00 0.00 0.00 22 1014.3
20260503201635 63 279 2.6 10.4 0.00 0.00 0.00 21 1014.3
20260503201327 62 340 1.7 14.8 0.00 0.00 0.00 26 1014.4
20260503201027 62 272 2.6 14.8 0.00 0.00 0.00 25 1014.2
20260503200726 62 319 3.5 14.8 0.00 0.00 0.00 23 1014.3
20260503200414 62 0 3.5 15.6 0.00 0.00 0.00 22 1014.4
20260503195653 62 283 5.2 15.6 0.00 0.00 0.00 24 1014.4
20260503195357 62 311 6.1 15.6 0.00 0.00 0.00 21 1014.5
20260503195046 62 281 6.1 15.6 0.00 0.00 0.00 23 1014.6
20260503194330 61 5 3.5 9.6 0.00 0.00 0.00 21 1014.4
20260503194027 62 204 3.5 8.7 0.00 0.00 0.00 21 1014.6
20260503193728 62 5 3.5 13.9 0.00 0.00 0.00 26 1014.7
20260503193415 62 265 4.3 13.9 0.00 0.00 0.00 25 1014.8
20260503193103 62 5 5.2 13.9 0.00 0.00 0.00 24 1014.7
20260503192753 61 236 5.2 13.9 0.00 0.00 0.00 22 1014.8
20260503192449 61 262 4.3 13.9 0.00 0.00 0.00 26 1014.8
20260503192148 61 17 4.3 13.9 0.00 0.00 0.00 24 1014.9
20260503191843 61 268 4.3 13.0 0.00 0.00 0.00 22 1015.0
20260503191546 61 323 4.3 13.0 0.00 0.00 0.00 21 1014.9
20260503191242 61 246 5.2 13.0 0.00 0.00 0.00 21 1014.9
20260503190936 61 258 5.2 13.0 0.00 0.00 0.00 22 1015.0
20260503190208 61 166 5.2 10.4 0.00 0.00 0.00 22 1015.0
20260503185901 61 0 4.3 10.4 0.00 0.00 0.00 22 1015.1
20260503185558 61 281 3.5 10.4 0.00 0.00 0.00 23 1015.1
20260503184838 61 247 3.5 11.3 0.00 0.00 0.00 22 1015.3
20260503184540 61 302 3.5 11.3 0.00 0.00 0.00 23 1015.4
20260503184231 61 279 4.3 11.3 0.00 0.00 0.00 21 1015.4
20260503183931 61 332 3.5 12.2 0.00 0.00 0.00 27 1015.5
20260503183632 61 288 3.5 12.2 0.00 0.00 0.00 22 1015.5
20260503182914 61 259 5.2 13.9 0.00 0.00 0.00 22 1015.5
20260503182600 61 259 5.2 13.9 0.00 0.00 0.00 21 1015.5
20260503182250 61 314 4.3 13.9 0.00 0.00 0.00 22 1015.5
20260503181946 61 321 4.3 13.9 0.00 0.00 0.00 24 1015.4
20260503180759 60 218 3.5 13.9 0.00 0.00 0.00 22 1015.5
20260503180500 60 266 3.5 13.9 0.00 0.00 0.00 21 1015.6
20260503180153 60 286 2.6 16.5 0.00 0.00 0.00 26 1015.4
20260503175853 60 288 3.5 16.5 0.00 0.00 0.00 22 1015.5
20260503175542 60 277 3.5 16.5 0.00 0.00 0.00 21 1015.6
20260503175244 60 259 4.3 16.5 0.00 0.00 0.00 23 1015.6
20260503174940 59 192 4.3 16.5 0.00 0.00 0.00 26 1015.6
20260503174628 59 306 4.3 16.5 0.00 0.00 0.00 23 1015.7
20260503174316 58 295 4.3 16.5 0.00 0.00 0.00 26 1015.6
20260503174016 58 277 3.5 13.0 0.00 0.00 0.00 25 1015.6
20260503173714 58 226 4.3 13.0 0.00 0.00 0.00 25 1015.8
20260503173402 58 217 5.2 13.0 0.00 0.00 0.00 24 1015.8
20260503173059 57 294 5.2 13.0 0.00 0.00 0.00 29 1015.8
20260503172757 57 291 5.2 13.0 0.00 0.00 0.00 24 1015.9
20260503172043 57 155 2.6 12.2 0.00 0.00 0.00 26 1015.9
20260503171733 57 273 2.6 12.2 0.00 0.00 0.00 25 1015.9
20260503171427 57 0 2.6 12.2 0.00 0.00 0.00 25 1015.9
20260503171131 57 197 2.6 14.8 0.00 0.00 0.00 28 1016.0
20260503170414 56 22 4.3 14.8 0.00 0.00 0.00 26 1016.1
20260503140143 48 346 4.3 11.3 0.00 0.01 0.00 32 1017.2
20260503130534 47 350 4.3 10.4 0.00 0.01 0.00 35 1017.7
20260503130221 47 254 3.5 11.3 0.00 0.01 0.00 36 1017.7
20260503120136 45 254 3.5 8.7 0.00 0.01 0.00 41 1017.4
20260503110634 40 276 2.6 7.8 0.00 0.01 0.00 51 1017.0
20260503110326 40 275 1.7 7.8 0.00 0.01 0.00 52 1017.0